Voltar ao catálogo

STARLINK-2695

AtivoComunicaçõesVLEO
NORAD 48644·PAYLOAD·🇺🇸 United States

Lançado May 26, 2021 de Cape Canaveral Space Force Station

Loading…

Próximas Passagens (próximas 24 horas)

TLE

AtualizadoSource: CelesTrak SupGP

Época: Sep 14, 2026, 13:21 UTC

1 48644C 21044G   26257.55673611  .00034565  00000+0  11116-2 0  2574
2 48644  53.1582 315.1048 0001327  71.8321  34.9132 15.31680674    13

Acompanhe STARLINK-2695 em tempo real com AllMySat

Download on the App Store